User: anonymous   Login
Location: Unspecified
(0.0000°N, 0.0000°E)
Time: 00:22:37
(UTC+00:00)
Language:

STARLINK-33886 - Orbit

View from above orbital plane
View from above orbital plane
View from above satellite
View from above satellite

Ground track
Ground track

The orbit is defined by the following mean orbital elements,

1 63681U          26145.50529466 +.00000000 +00000-0 +63834-3 0 00009
2 63681  42.9993 316.6014 0001221 272.2963  87.7749 15.27587388    06
Epoch (UTC): 25 May 2026 12:07:37
Eccentricity: 0.0001221
inclination: 42.9993°
perigee height: 482 km
apogee height: 484 km
right ascension of ascending node: 316.6014°
argument of perigee: 272.2963°
revolutions per day: 15.27587388
mean anomaly at epoch: 87.7749°

The dashed part of the orbit path shows where the satellite is in the earth's shadow,  

DLR